Athens, OH

5:00 AM EDT on July 23, 2017 (GMT -0400)
Ohio University

Weather History for KUNI - January, 2013

Change the Weather History Date:

Wednesday, January 30, 2013

  Actual Average (KPKB) Record (KPKB)
Temperature  
Mean Temperature 54 °F -  
Max Temperature 68 °F 39 °F 71 °F (1947)
Min Temperature 38 °F 23 °F -2 °F (1966)
Degree Days  
Heating Degree Days 12    
Growing Degree Days 4 (Base 50)    
Moisture  
Dew Point 50 °F    
Average Humidity 79    
Maximum Humidity 94    
Minimum Humidity 58    
Precipitation  
Precipitation 0.00 in - - ()
Sea Level Pressure  
Sea Level Pressure 29.48 in    
Wind  
Wind Speed 10 mph (SSW)    
Max Wind Speed 29 mph    
Max Gust Speed 53 mph    
Visibility 10 miles    
Events Rain    
Averages and records for this station are not official NWS values.
T = Trace of Precipitation, MM = Missing Value Source: NWS Daily Summary

Daily Weather History Graph

Daily Weather History Graph

Search for Another Location

Airport or City:

Trip Planner

Search our weather history database for the weather conditions in past years. The results will help you decide how hot, cold, wet, or windy it might be!

Date:

Astronomy

Jan. 30, 2013 Rise Set
Actual Time 7:37 AM EST 5:47 PM EST
Civil Twilight 7:08 AM EST 6:16 PM EST
Nautical Twilight 6:36 AM EST 6:48 PM EST
Astronomical Twilight 6:05 AM EST 7:19 PM EST
Moon 9:43 PM EST (1/30) 9:06 AM EST (1/30)
Length of Visible Light 11h 07m
Length of Day
10h 10m
Waning Gibbous, 88% of the Moon is Illuminated
Jan 30
Waning Gibbous
Feb 3
Last Quarter
Feb 10
New
Feb 17
First Quarter
Feb 25
Full

Hourly Weather History & Observations

Time (EST) Temp. Windchill Dew Point Humidity Pressure Visibility Wind Dir Wind Speed Gust Speed Precip Events Conditions
12:15 AM 61.9 °F - 49.1 °F 63% 29.73 in 10.0 mi South 9.2 mph - N/A   Clear
12:35 AM 61.9 °F - 48.6 °F 62% 29.72 in 10.0 mi South 6.9 mph - N/A   Clear
12:55 AM 62.1 °F - 48.4 °F 61% 29.70 in 10.0 mi South 11.5 mph 16.1 mph N/A   Clear
1:15 AM 62.6 °F - 48.4 °F 60% 29.69 in 10.0 mi South 8.1 mph - N/A   Clear
1:35 AM 61.9 °F - 48.2 °F 61% 29.66 in 10.0 mi South 9.2 mph 16.1 mph N/A   Clear
1:55 AM 61.9 °F - 48.2 °F 61% 29.66 in 10.0 mi South 6.9 mph - N/A   Clear
2:15 AM 61.9 °F - 48.2 °F 61% 29.65 in 10.0 mi South 8.1 mph - N/A   Clear
2:35 AM 61.9 °F - 48.4 °F 61% 29.64 in 10.0 mi South 9.2 mph - N/A   Clear
2:55 AM 61.9 °F - 48.7 °F 62% 29.63 in 10.0 mi South 6.9 mph - N/A   Clear
3:15 AM 62.4 °F - 49.1 °F 62% 29.62 in 10.0 mi South 4.6 mph - N/A   Clear
3:35 AM 62.2 °F - 49.5 °F 63% 29.60 in 10.0 mi South 6.9 mph - N/A   Clear
3:55 AM 62.2 °F - 49.6 °F 63% 29.58 in 10.0 mi SSE 8.1 mph - N/A   Clear
4:15 AM 62.2 °F - 50.0 °F 64% 29.57 in 10.0 mi SSE 8.1 mph 16.1 mph N/A   Clear
4:35 AM 63.3 °F - 50.4 °F 63% 29.56 in 10.0 mi South 9.2 mph 17.3 mph N/A   Clear
4:55 AM 63.3 °F - 50.9 °F 64% 29.55 in 10.0 mi South 8.1 mph - N/A   Clear
5:15 AM 63.3 °F - 51.3 °F 65% 29.54 in 10.0 mi South 8.1 mph - N/A   Clear
5:35 AM 63.0 °F - 51.8 °F 67% 29.52 in 10.0 mi South 9.2 mph - N/A   Clear
5:55 AM 63.3 °F - 52.0 °F 66% 29.50 in 10.0 mi SSE 8.1 mph - N/A   Clear
6:15 AM 63.1 °F - 52.3 °F 68% 29.49 in 10.0 mi SSE 10.4 mph - N/A   Clear
6:35 AM 63.9 °F - 52.7 °F 67% 29.49 in 10.0 mi South 9.2 mph - N/A   Mostly Cloudy
7:15 AM 66.0 °F - 52.7 °F 62% 29.45 in 10.0 mi South 10.4 mph 25.3 mph N/A   Mostly Cloudy
7:35 AM 66.9 °F - 52.7 °F 60% 29.44 in 10.0 mi South 17.3 mph 25.3 mph N/A   Overcast
8:15 AM 68.0 °F - 52.5 °F 58% 29.41 in 10.0 mi South 16.1 mph 25.3 mph N/A   Overcast
8:35 AM 59.5 °F - 55.6 °F 87% 29.53 in 2.0 mi West 19.6 mph 52.9 mph N/A Rain Heavy Rain
8:55 AM 58.5 °F - 55.9 °F 91% 29.55 in 7.0 mi West 12.7 mph - N/A Rain Rain
9:15 AM 58.3 °F - 56.1 °F 93% 29.57 in 7.0 mi West 9.2 mph 16.1 mph N/A Rain Rain
9:35 AM 58.1 °F - 55.8 °F 92% 29.57 in 10.0 mi West 3.5 mph - N/A Rain Light Rain
9:55 AM 58.1 °F - 55.6 °F 91% 29.58 in 10.0 mi West 6.9 mph - N/A Rain Light Rain
10:15 AM 58.1 °F - 55.9 °F 93% 29.57 in 10.0 mi WSW 3.5 mph - N/A Rain Light Rain
10:35 AM 58.1 °F - 53.8 °F 86% 29.57 in 10.0 mi SW 9.2 mph - N/A Rain Rain
10:55 AM 57.4 °F - 53.2 °F 86% 29.58 in 10.0 mi SSW 8.1 mph - N/A Rain Rain
11:15 AM 57.2 °F - 53.1 °F 86% 29.58 in 10.0 mi SSW 8.1 mph 17.3 mph N/A Rain Rain
11:35 AM 56.5 °F - 53.2 °F 89% 29.57 in 10.0 mi South 8.1 mph - N/A Rain Rain
11:55 AM 56.1 °F - 52.9 °F 89% 29.53 in 10.0 mi South 8.1 mph - N/A Rain Rain
12:15 PM 55.8 °F - 53.1 °F 91% 29.53 in 10.0 mi South 5.8 mph - N/A Rain Light Rain
12:35 PM 55.6 °F - 53.4 °F 92% 29.52 in 10.0 mi South 8.1 mph - N/A Rain Light Rain
12:55 PM 55.8 °F - 53.6 °F 92% 29.49 in 10.0 mi SSE 9.2 mph - N/A Rain Rain
1:15 PM 55.8 °F - 53.6 °F 92% 29.49 in 10.0 mi South 8.1 mph - N/A Rain Rain
1:35 PM 55.9 °F - 54.0 °F 93% 29.50 in 7.0 mi SSW 10.4 mph 16.1 mph N/A Rain Rain
1:55 PM 55.8 °F - 54.0 °F 94% 29.49 in 7.0 mi South 6.9 mph - N/A Rain Rain
2:15 PM 55.8 °F - 54.0 °F 94% 29.45 in 7.0 mi SSE 9.2 mph 16.1 mph N/A Rain Rain
2:35 PM 55.9 °F - 54.1 °F 94% 29.45 in 7.0 mi SSE 8.1 mph - N/A Rain Rain
2:55 PM 56.3 °F - 54.5 °F 94% 29.44 in 10.0 mi SSE 10.4 mph 17.3 mph N/A Rain Light Rain
3:15 PM 56.3 °F - 54.5 °F 94% 29.41 in 10.0 mi SSE 12.7 mph 20.7 mph N/A Rain Light Rain
3:35 PM 56.5 °F - 54.5 °F 93% 29.41 in 10.0 mi SSE 11.5 mph 17.3 mph N/A Rain Rain
3:55 PM 56.5 °F - 54.5 °F 93% 29.40 in 10.0 mi SSE 10.4 mph - N/A Rain Light Rain
4:15 PM 56.5 °F - 54.5 °F 93% 29.37 in 10.0 mi South 8.1 mph - N/A Rain Light Rain
4:35 PM 56.8 °F - 54.1 °F 91% 29.37 in 10.0 mi South 9.2 mph 17.3 mph N/A Rain Light Rain
4:55 PM 56.7 °F - 54.5 °F 92% 29.37 in 10.0 mi SSE 12.7 mph 20.7 mph N/A Rain Light Rain
5:15 PM 56.8 °F - 54.1 °F 91% 29.36 in 10.0 mi SSW 10.4 mph - N/A Rain Light Rain
5:35 PM 56.7 °F - 53.8 °F 90% 29.35 in 10.0 mi SSW 8.1 mph 20.7 mph N/A Rain Light Rain
5:55 PM 56.3 °F - 52.7 °F 88% 29.34 in 10.0 mi South 10.4 mph 19.6 mph N/A   Overcast
6:15 PM 55.6 °F - 50.5 °F 83% 29.36 in 10.0 mi SW 13.8 mph 21.9 mph N/A   Overcast
6:35 PM 55.2 °F - 49.6 °F 81% 29.35 in 10.0 mi SSW 10.4 mph 16.1 mph N/A   Overcast
6:55 PM 54.0 °F - 48.4 °F 81% 29.34 in 10.0 mi South 16.1 mph 19.6 mph N/A   Overcast
7:15 PM 52.9 °F - 47.7 °F 82% 29.33 in 10.0 mi South 16.1 mph 24.2 mph N/A   Overcast
7:35 PM 52.7 °F - 46.9 °F 81% 29.31 in 10.0 mi South 10.4 mph 17.3 mph N/A   Scattered Clouds
7:55 PM 52.0 °F - 46.4 °F 81% 29.31 in 10.0 mi SSW 9.2 mph 16.1 mph N/A   Scattered Clouds
8:15 PM 52.0 °F - 45.1 °F 77% 29.31 in 10.0 mi SSW 10.4 mph 17.3 mph N/A   Scattered Clouds
8:35 PM 51.4 °F - 44.8 °F 78% 29.33 in 10.0 mi SW 8.1 mph 16.1 mph N/A   Scattered Clouds
8:55 PM 51.4 °F - 44.2 °F 76% 29.33 in 10.0 mi SSW 11.5 mph 23.0 mph N/A   Mostly Cloudy
9:15 PM 50.9 °F - 44.1 °F 77% 29.32 in 10.0 mi SSW 12.7 mph 21.9 mph N/A   Mostly Cloudy
9:35 PM 50.5 °F - 43.7 °F 77% 29.30 in 10.0 mi SSW 9.2 mph - N/A   Scattered Clouds
9:55 PM 50.5 °F - 43.2 °F 76% 29.33 in 10.0 mi SSW 6.9 mph 17.3 mph N/A   Mostly Cloudy
10:15 PM 43.9 °F 35.9 °F 37.9 °F 80% 29.38 in 7.0 mi West 18.4 mph 40.3 mph N/A Rain Rain
10:35 PM 39.6 °F 29.2 °F 35.6 °F 86% 29.41 in 4.0 mi West 23.0 mph 42.6 mph N/A Rain Light Rain
10:55 PM 39.6 °F 32.1 °F 35.6 °F 86% 29.39 in 10.0 mi WNW 12.7 mph 28.8 mph N/A   Overcast
11:15 PM 39.7 °F 31.9 °F 35.6 °F 85% 29.43 in 10.0 mi West 13.8 mph 18.4 mph N/A Rain Light Rain
11:35 PM 39.2 °F 27.6 °F 34.9 °F 84% 29.43 in 7.0 mi WNW 28.8 mph 39.1 mph N/A   Drizzle
11:55 PM 38.3 °F 27.3 °F 33.3 °F 82% 29.45 in 10.0 mi West 24.2 mph 35.7 mph N/A   Light Drizzle